Location: Ferchesar
(52.6477°N, 12.4298°E)
Time: 19:36:56
(UTC+01:00)

Explorer 11/Cluster Stage 4 - Pass Details

Date: 03 December 2021
Orbit: 467 x 1255 km, 28.8° (Epoch: 21 January)

Event Time Altitude Azimuth Distance (km) Brightness Sun altitude
Exits shadow 04:40:07 10° 193° (SSW) 3,130 9.5 -29.4°
Reaches altitude 10° 04:40:48 10° 188° (S) 3,104 9.5 -29.3°
Maximum altitude 04:41:54 10° 179° (S) 3,103 9.6 -29.2°
Drops below altitude 10° 04:43:01 10° 171° (S) 3,150 9.7 -29.0°
Sets 04:49:31 0° 135° (SE) 4,189 10.9 -28.0°
